Date,TemperatureHighF,TemperatureAvgF,TemperatureLowF,DewpointHighF,DewpointAvgF,DewpointLowF,HumidityHigh,HumidityAvg,HumidityLow,PressureMaxIn,PressureMinIn,WindSpeedMaxMPH,WindSpeedAvgMPH,GustSpeedMaxMPH,PrecipitationSumIn
2013-3-1,66,62,59,57,51,46,84,67,55,29.93,29.84,10,4,15,0.00
2013-3-2,67,59,53,48,42,35,69,54,39,29.98,29.89,17,6,25,0.00
2013-3-3,63,55,50,46,42,39,81,63,44,30.09,29.90,14,5,21,0.01
2013-3-4,70,55,44,44,37,33,72,52,29,30.16,30.06,14,4,23,0.00
2013-3-5,79,65,49,58,52,43,88,66,45,30.13,30.02,8,2,14,0.00
2013-3-6,80,67,53,65,51,23,89,60,21,30.05,29.88,15,6,26,0.00
2013-3-7,75,60,48,55,44,35,83,56,32,30.13,30.01,11,4,19,0.00
2013-3-8,58,55,55,53,51,51,88,87,82,30.10,30.07,4,2,6,0.00
2013-3-9,55,55,55,51,51,51,87,87,87,30.07,30.07,2,2,4,0.00
2013-3-10,55,55,55,51,51,51,87,87,87,30.07,30.07,2,2,4,0.00
2013-3-11,55,55,55,51,51,51,87,87,87,30.07,30.07,2,2,4,0.00
2013-3-12,55,55,55,51,51,51,87,87,87,30.07,30.07,2,2,4,0.00
2013-3-13,55,55,55,51,51,51,87,87,87,30.07,30.07,2,2,4,0.00
2013-3-14,55,55,55,51,51,51,87,87,87,30.07,30.07,2,2,4,0.00
2013-3-16,69,67,64,55,54,52,67,63,59,30.05,29.91,12,2,16,1.07
2013-3-17,81,69,58,62,58,52,86,67,48,29.95,29.81,11,2,18,0.00
2013-3-18,83,73,66,71,65,59,90,76,60,29.87,29.75,12,3,21,0.04
2013-3-19,83,74,68,70,68,64,93,81,58,29.81,29.59,14,2,24,0.01
2013-3-20,87,74,65,73,65,58,93,75,51,29.78,29.59,14,2,26,0.00
2013-3-21,79,69,59,62,53,35,90,61,22,29.74,29.62,11,4,17,0.00
2013-3-22,79,69,56,70,59,50,89,73,53,29.81,29.70,9,2,17,0.00
2013-3-23,89,79,72,75,72,69,92,78,52,29.78,29.59,11,3,21,0.02
2013-3-24,91,81,75,74,72,68,92,74,51,29.68,29.47,19,6,32,0.00
2013-3-25,81,75,66,74,60,41,91,63,32,29.79,29.53,14,5,21,0.04
2013-3-26,69,62,52,44,37,25,59,41,22,30.01,29.77,15,8,26,0.00
2013-3-27,71,58,47,47,41,34,71,54,31,30.05,29.96,14,5,20,0.00
2013-3-28,76,63,52,51,44,34,72,51,29,30.07,29.96,12,4,16,0.00
2013-3-29,78,67,58,53,49,41,64,53,36,30.09,29.99,13,4,20,0.00
2013-3-30,80,69,56,56,52,47,81,55,35,30.07,29.95,11,2,18,0.00
2013-3-31,83,74,66,66,62,54,82,66,50,29.99,29.84,12,3,20,0.00